| time (UTC) | temp F | wind direction | speed MPH | gust MPH | rain 1hr in | rain 24hr in | rain mn in | humidity % | barometer mb |
| 20260507204556 | 0 | 204 | 1.0 | 4.0 | 0.00 | 0.00 | 0.00 | 1005.0 | |
| 20260507203057 | 0 | 203 | 1.0 | 4.0 | 0.00 | 0.00 | 0.00 | 1005.0 | |
| 20260507201553 | 0 | 202 | 2.0 | 7.0 | 0.00 | 0.00 | 0.00 | 1004.8 | |
| 20260507200028 | 0 | 202 | 4.0 | 6.0 | 0.00 | 0.00 | 0.00 | 1004.7 | |
| 20260507194544 | 0 | 202 | 4.0 | 7.0 | 0.00 | 0.00 | 0.00 | 1004.6 | |
| 20260507193033 | 0 | 202 | 6.0 | 10.0 | 0.00 | 0.00 | 0.00 | 1004.5 | |
| 20260507191523 | 0 | 202 | 5.0 | 9.0 | 0.00 | 0.00 | 0.00 | 1004.5 | |
| 20260507190008 | 0 | 202 | 4.0 | 9.0 | 0.00 | 0.00 | 0.00 | 1004.5 | |
| 20260507184534 | 0 | 201 | 6.0 | 10.0 | 0.00 | 0.00 | 0.00 | 1004.4 | |
| 20260507183037 | 0 | 201 | 7.0 | 15.0 | 0.00 | 0.00 | 0.00 | 1004.2 | |
| 20260507181529 | 0 | 198 | 9.0 | 14.0 | 0.00 | 0.00 | 0.00 | 1004.2 | |
| 20260507180035 | 0 | 198 | 8.0 | 15.0 | 0.00 | 0.00 | 0.00 | 1004.2 | |
| 20260507174520 | 0 | 198 | 4.0 | 10.0 | 0.00 | 0.00 | 0.00 | 1004.1 | |
| 20260507173049 | 0 | 198 | 8.0 | 16.0 | 0.00 | 0.00 | 0.00 | 1004.2 | |
| 20260507171517 | 0 | 200 | 6.0 | 14.0 | 0.00 | 0.00 | 0.00 | 1004.2 | |
| 20260507170010 | 0 | 200 | 11.0 | 16.0 | 0.00 | 0.00 | 0.00 | 1004.2 | |
| 20260507164501 | 0 | 198 | 8.0 | 16.0 | 0.00 | 0.00 | 0.00 | 1004.2 | |
| 20260507163016 | 0 | 197 | 8.0 | 15.0 | 0.00 | 0.00 | 0.00 | 1004.2 | |
| 20260507161550 | 0 | 197 | 8.0 | 15.0 | 0.00 | 0.00 | 0.00 | 1004.2 | |
| 20260507160017 | 0 | 197 | 9.0 | 14.0 | 0.00 | 0.00 | 0.00 | 1004.1 | |
| 20260507154510 | 0 | 198 | 8.0 | 13.0 | 0.00 | 0.00 | 0.00 | 1004.2 | |
| 20260507153013 | 0 | 197 | 10.0 | 15.0 | 0.00 | 0.00 | 0.00 | 1004.1 | |
| 20260507151508 | 0 | 197 | 9.0 | 14.0 | 0.00 | 0.00 | 0.00 | 1004.2 | |
| 20260507150002 | 0 | 197 | 9.0 | 13.0 | 0.00 | 0.00 | 0.00 | 1004.1 | |
| 20260507144524 | 0 | 197 | 8.0 | 11.0 | 0.00 | 0.00 | 0.00 | 1004.2 | |
| 20260507143020 | 0 | 197 | 5.0 | 12.0 | 0.00 | 0.00 | 0.00 | 1004.4 | |
| 20260507141519 | 0 | 200 | 4.0 | 11.0 | 0.00 | 0.00 | 0.00 | 1004.5 | |
| 20260507140051 | 0 | 200 | 5.0 | 11.0 | 0.00 | 0.00 | 0.00 | 1004.5 | |
| 20260507134554 | 0 | 198 | 5.0 | 13.0 | 0.00 | 0.00 | 0.00 | 1004.5 | |
| 20260507133042 | 0 | 197 | 7.0 | 13.0 | 0.00 | 0.00 | 0.00 | 1004.5 | |
| 20260507131540 | 0 | 198 | 4.0 | 13.0 | 0.00 | 0.00 | 0.00 | 1004.6 | |
| 20260507130033 | 0 | 198 | 6.0 | 9.0 | 0.00 | 0.00 | 0.00 | 1004.6 | |
| 20260507124527 | 0 | 198 | 5.0 | 11.0 | 0.00 | 0.00 | 0.00 | 1004.6 | |
| 20260507123040 | 0 | 198 | 7.0 | 13.0 | 0.00 | 0.00 | 0.00 | 1004.6 | |
| 20260507121535 | 0 | 198 | 9.0 | 13.0 | 0.00 | 0.00 | 0.00 | 1004.6 | |
| 20260507120031 | 0 | 198 | 9.0 | 15.0 | 0.00 | 0.00 | 0.00 | 1004.8 | |
| 20260507114531 | 0 | 198 | 5.0 | 12.0 | 0.00 | 0.00 | 0.00 | 1004.7 | |
| 20260507113023 | 0 | 197 | 9.0 | 15.0 | 0.00 | 0.00 | 0.00 | 1004.8 | |
| 20260507111521 | 0 | 198 | 9.0 | 14.0 | 0.00 | 0.00 | 0.00 | 1004.7 | |
| 20260507110002 | 0 | 200 | 7.0 | 12.0 | 0.00 | 0.00 | 0.00 | 1004.7 | |
| 20260507104506 | 0 | 197 | 1.0 | 7.0 | 0.00 | 0.00 | 0.00 | 1004.8 | |
| 20260507103000 | 0 | 200 | 6.0 | 9.0 | 0.00 | 0.00 | 0.00 | 1005.0 | |
| 20260507101601 | 0 | 198 | 5.0 | 10.0 | 0.00 | 0.00 | 0.00 | 1004.9 | |
| 20260507100004 | 0 | 197 | 5.0 | 8.0 | 0.00 | 0.00 | 0.00 | 1005.0 | |
| 20260507094541 | 0 | 198 | 4.0 | 7.0 | 0.00 | 0.00 | 0.00 | 1005.0 | |
| 20260507093040 | 0 | 198 | 4.0 | 7.0 | 0.00 | 0.00 | 0.00 | 1004.9 | |
| 20260507091540 | 0 | 197 | 5.0 | 8.0 | 0.00 | 0.00 | 0.00 | 1004.8 | |
| 20260507090006 | 0 | 197 | 3.0 | 7.0 | 0.00 | 0.00 | 0.00 | 1004.9 | |
| 20260507084601 | 0 | 198 | 3.0 | 6.0 | 0.00 | 0.00 | 0.00 | 1004.8 | |
| 20260507083004 | 0 | 197 | 3.0 | 5.0 | 0.00 | 0.00 | 0.00 | 1004.8 | |
| 20260507081557 | 0 | 198 | 1.0 | 4.0 | 0.00 | 0.00 | 0.00 | 1004.8 | |
| 20260507080053 | 0 | 197 | 2.0 | 4.0 | 0.00 | 0.00 | 0.00 | 1004.8 | |
| 20260507074548 | 0 | 199 | 3.0 | 6.0 | 0.00 | 0.00 | 0.00 | 1004.7 | |
| 20260507073043 | 0 | 200 | 2.0 | 5.0 | 0.00 | 0.00 | 0.00 | 1004.7 | |
| 20260507071538 | 0 | 198 | 2.0 | 6.0 | 0.00 | 0.00 | 0.00 | 1004.6 | |
| 20260507070026 | 0 | 197 | 3.0 | 8.0 | 0.00 | 0.00 | 0.00 | 1004.6 | |
| 20260507064503 | 0 | 198 | 6.0 | 9.0 | 0.00 | 0.00 | 0.00 | 1004.5 | |
| 20260507063059 | 0 | 198 | 3.0 | 7.0 | 0.00 | 0.00 | 0.00 | 1004.6 | |
| 20260507061555 | 0 | 197 | 3.0 | 8.0 | 0.00 | 0.00 | 0.00 | 1004.6 | |
| 20260507060013 | 0 | 197 | 2.0 | 5.0 | 0.00 | 0.00 | 0.00 | 1004.6 | |
| 20260507054510 | 0 | 195 | 2.0 | 4.0 | 0.00 | 0.00 | 0.00 | 1004.6 | |
| 20260507053006 | 0 | 197 | 2.0 | 4.0 | 0.00 | 0.00 | 0.00 | 1004.5 | |
| 20260507051557 | 0 | 197 | 2.0 | 4.0 | 0.00 | 0.00 | 0.00 | 1004.5 | |
| 20260507050052 | 0 | 198 | 2.0 | 4.0 | 0.00 | 0.00 | 0.00 | 1004.5 | |
| 20260507044548 | 0 | 198 | 3.0 | 6.0 | 0.00 | 0.00 | 0.00 | 1004.4 | |
| 20260507043042 | 0 | 199 | 1.0 | 5.0 | 0.00 | 0.00 | 0.00 | 1004.4 | |
| 20260507041502 | 0 | 198 | 0.0 | 2.0 | 0.00 | 0.00 | 0.00 | 1004.4 | |
| 20260507040101 | 0 | 197 | 1.0 | 3.0 | 0.00 | 0.00 | 0.00 | 1004.3 | |
| 20260507034601 | 0 | 197 | 2.0 | 5.0 | 0.00 | 0.00 | 0.00 | 1004.3 | |
| 20260507031510 | 0 | 198 | 2.0 | 6.0 | 0.00 | 0.00 | 0.00 | 1004.4 | |
| 20260507030003 | 0 | 198 | 3.0 | 5.0 | 0.00 | 0.00 | 0.00 | 1004.4 | |
| 20260507024601 | 0 | 197 | 2.0 | 3.0 | 0.00 | 0.00 | 0.00 | 1004.4 | |
| 20260507023054 | 0 | 198 | 2.0 | 3.0 | 0.00 | 0.00 | 0.00 | 1004.4 | |
| 20260507021551 | 0 | 198 | 1.0 | 2.0 | 0.00 | 0.00 | 0.00 | 1004.5 | |
| 20260507020053 | 0 | 198 | 0.0 | 2.0 | 0.00 | 0.00 | 0.00 | 1004.5 | |
| 20260507014546 | 0 | 198 | 0.0 | 0.0 | 0.00 | 0.00 | 0.00 | 1004.5 | |
| 20260507013041 | 0 | 198 | 0.0 | 0.0 | 0.00 | 0.00 | 0.00 | 1004.5 | |
| 20260507011534 | 0 | 198 | 0.0 | 0.0 | 0.00 | 0.00 | 0.00 | 1004.6 | |
| 20260507010018 | 0 | 197 | 0.0 | 1.0 | 0.00 | 0.00 | 0.00 | 1004.6 | |
| 20260507004509 | 0 | 198 | 0.0 | 1.0 | 0.00 | 0.00 | 0.00 | 1004.6 | |
| 20260507003011 | 0 | 198 | 0.0 | 1.0 | 0.00 | 0.00 | 0.00 | 1004.7 | |
| 20260507001501 | 0 | 197 | 0.0 | 1.0 | 0.00 | 0.00 | 0.00 | 1004.8 | |
| 20260507000059 | 0 | 197 | 1.0 | 3.0 | 0.00 | 0.00 | 0.00 | 1004.9 | |
| 20260506234539 | 0 | 197 | 1.0 | 2.0 | 0.00 | 0.00 | 0.00 | 1004.9 | |
| 20260506233038 | 0 | 198 | 1.0 | 2.0 | 0.00 | 0.00 | 0.00 | 1004.9 | |
| 20260506231538 | 0 | 198 | 1.0 | 3.0 | 0.00 | 0.00 | 0.00 | 1004.8 | |
| 20260506230043 | 0 | 198 | 2.0 | 4.0 | 0.00 | 0.00 | 0.00 | 1004.8 | |
| 20260506224538 | 0 | 198 | 2.0 | 4.0 | 0.00 | 0.00 | 0.00 | 1004.9 | |
| 20260506223042 | 0 | 198 | 2.0 | 5.0 | 0.00 | 0.00 | 0.00 | 1004.9 | |
| 20260506221544 | 0 | 197 | 2.0 | 4.0 | 0.00 | 0.00 | 0.00 | 1004.9 | |
| 20260506220024 | 0 | 197 | 3.0 | 4.0 | 0.00 | 0.00 | 0.00 | 1004.7 | |
| 20260506214523 | 0 | 197 | 3.0 | 4.0 | 0.00 | 0.00 | 0.00 | 1004.8 | |
| 20260506213018 | 0 | 197 | 2.0 | 5.0 | 0.00 | 0.00 | 0.00 | 1004.8 | |
| 20260506211514 | 0 | 197 | 1.0 | 3.0 | 0.00 | 0.00 | 0.00 | 1004.9 | |
| 20260506210012 | 0 | 197 | 2.0 | 4.0 | 0.00 | 0.00 | 0.00 | 1004.9 |